When you browse on this site, cookies collect data to enhance your experience and personalize the content and advertising you see.
Visit our Privacy Policy to learn more. By continuing to use the site, you agree to this use of cookies and data.
  • In Spain
  • List of Countries
  • For 7 days
  • Water Temperature
  • Weather Map
  • Weather Widgets
  • user-avatar
    Login

    Hourly Weather Limache

    Today, 23 January, Thursday

    Time Temperature Precipitation Wind Pressure Humidity
    00:00 +14°C° 0 mm 0 mps 749 mmHg 95%
    01:00 +14°C° 0 mm 0 mps 749 mmHg 95%
    02:00 +14°C° 0 mm 0 mps 749 mmHg 95%
    03:00 +14°C° 0 mm 0 mps 749 mmHg 95%
    04:00 +14°C° 0 mm 0 mps 749 mmHg 95%
    05:00 +15°C° 0 mm 0 mps 750 mmHg 90%
    06:00 +19°C° 0 mm 1 mps 750 mmHg 85%
    07:00 +21°C° 0 mm 1 mps 751 mmHg 80%
    08:00 +23°C° 0 mm 2 mps 751 mmHg 71%
    09:00 +25°C° 0 mm 2 mps 751 mmHg 62%
    10:00 +27°C° 0 mm 3 mps 751 mmHg 53%
    11:00 +28°C° 0 mm 3 mps 751 mmHg 50%
    12:00 +29°C° 0 mm 4 mps 751 mmHg 46%
    13:00 +32°C° 0 mm 4 mps 750 mmHg 42%
    14:00 +30°C° 0 mm 4 mps 750 mmHg 44%
    15:00 +29°C° 0 mm 3 mps 750 mmHg 46%
    16:00 +28°C° 0 mm 3 mps 750 mmHg 48%
    17:00 +25°C° 0 mm 2 mps 750 mmHg 59%
    18:00 +21°C° 0 mm 2 mps 750 mmHg 71%
    19:00 +19°C° 0 mm 1 mps 750 mmHg 83%
    20:00 +18°C° 0 mm 1 mps 750 mmHg 85%
    21:00 +16°C° 0 mm 0 mps 750 mmHg 87%
    22:00 +15°C° 0 mm 0 mps 750 mmHg 90%
    23:00 +15°C° 0 mm 0 mps 749 mmHg 90%

    Tomorrow, 24 January, Friday

    Time Temperature Precipitation Wind Pressure Humidity
    00:00 +14°C° 0 mm 0 mps 749 mmHg 90%
    01:00 +14°C° 0 mm 0 mps 749 mmHg 89%
    02:00 +14°C° 0 mm 0 mps 749 mmHg 89%
    03:00 +14°C° 0 mm 0 mps 749 mmHg 89%
    04:00 +14°C° 0 mm 0 mps 749 mmHg 89%
    05:00 +17°C° 0 mm 0 mps 750 mmHg 79%
    06:00 +19°C° 0 mm 0 mps 750 mmHg 70%
    07:00 +22°C° 0 mm 0 mps 750 mmHg 61%
    08:00 +26°C° 0 mm 1 mps 750 mmHg 54%
    09:00 +28°C° 0 mm 2 mps 750 mmHg 47%
    10:00 +30°C° 0 mm 3 mps 750 mmHg 40%
    11:00 +31°C° 0 mm 3 mps 750 mmHg 39%
    12:00 +32°C° 0 mm 4 mps 750 mmHg 38%
    13:00 +32°C° 0 mm 4 mps 750 mmHg 38%
    14:00 +32°C° 0 mm 4 mps 750 mmHg 39%
    15:00 +30°C° 0 mm 4 mps 749 mmHg 41%
    16:00 +29°C° 0 mm 4 mps 749 mmHg 42%
    17:00 +26°C° 0 mm 3 mps 749 mmHg 55%
    18:00 +21°C° 0 mm 2 mps 750 mmHg 68%
    19:00 +19°C° 0 mm 1 mps 750 mmHg 82%
    20:00 +18°C° 0 mm 1 mps 750 mmHg 83%
    21:00 +15°C° 0 mm 0 mps 750 mmHg 85%
    22:00 +14°C° 0 mm 0 mps 750 mmHg 87%
    23:00 +14°C° 0 mm 0 mps 749 mmHg 86%

    Day after tomorrow, 25 January, Saturday

    Time Temperature Precipitation Wind Pressure Humidity
    00:00 +14°C° 0 mm 0 mps 749 mmHg 86%
    01:00 +13°C° 0 mm 0 mps 749 mmHg 86%
    02:00 +13°C° 0 mm 0 mps 749 mmHg 86%
    03:00 +13°C° 0 mm 0 mps 749 mmHg 86%
    04:00 +13°C° 0 mm 0 mps 749 mmHg 86%
    05:00 +16°C° 0 mm 0 mps 749 mmHg 75%
    06:00 +19°C° 0 mm 0 mps 749 mmHg 65%
    07:00 +23°C° 0 mm 0 mps 750 mmHg 54%
    08:00 +27°C° 0 mm 1 mps 750 mmHg 48%
    09:00 +29°C° 0 mm 2 mps 750 mmHg 42%
    10:00 +31°C° 0 mm 3 mps 750 mmHg 35%
    11:00 +33°C° 0 mm 3 mps 750 mmHg 34%
    12:00 +33°C° 0 mm 4 mps 750 mmHg 33%
    13:00 +34°C° 0 mm 4 mps 750 mmHg 32%
    14:00 +33°C° 0 mm 4 mps 750 mmHg 33%
    15:00 +31°C° 0 mm 3 mps 749 mmHg 33%
    16:00 +31°C° 0 mm 3 mps 749 mmHg 34%
    17:00 +27°C° 0 mm 2 mps 749 mmHg 46%
    18:00 +23°C° 0 mm 2 mps 750 mmHg 58%
    19:00 +19°C° 0 mm 1 mps 750 mmHg 70%
    20:00 +18°C° 0 mm 1 mps 750 mmHg 72%
    21:00 +15°C° 0 mm 0 mps 750 mmHg 74%
    22:00 +14°C° 0 mm 0 mps 750 mmHg 76%
    23:00 +13°C° 0 mm 0 mps 749 mmHg 77%

    26 January, Sunday

    Time Temperature Precipitation Wind Pressure Humidity
    00:00 +13°C° 0 mm 0 mps 749 mmHg 78%
    01:00 +13°C° 0 mm 0 mps 749 mmHg 78%
    02:00 +13°C° 0 mm 0 mps 749 mmHg 79%
    03:00 +13°C° 0 mm 0 mps 749 mmHg 79%
    04:00 +13°C° 0 mm 1 mps 749 mmHg 80%
    05:00 +16°C° 0 mm 1 mps 749 mmHg 70%
    06:00 +20°C° 0 mm 1 mps 750 mmHg 61%
    07:00 +23°C° 0 mm 1 mps 750 mmHg 51%
    08:00 +26°C° 0 mm 2 mps 750 mmHg 46%
    09:00 +28°C° 0 mm 3 mps 751 mmHg 40%
    10:00 +30°C° 0 mm 3 mps 751 mmHg 34%
    11:00 +32°C° 0 mm 4 mps 751 mmHg 33%
    12:00 +32°C° 0 mm 4 mps 751 mmHg 33%
    13:00 +33°C° 0 mm 4 mps 750 mmHg 33%
    14:00 +32°C° 0 mm 4 mps 750 mmHg 34%
    15:00 +30°C° 0 mm 3 mps 750 mmHg 36%
    16:00 +30°C° 0 mm 3 mps 750 mmHg 38%
    17:00 +26°C° 0 mm 2 mps 750 mmHg 53%
    18:00 +23°C° 0 mm 2 mps 750 mmHg 67%
    19:00 +19°C° 0 mm 1 mps 750 mmHg 81%
    20:00 +18°C° 0 mm 1 mps 750 mmHg 83%
    21:00 +15°C° 0 mm 0 mps 750 mmHg 84%
    22:00 +15°C° 0 mm 0 mps 750 mmHg 86%
    23:00 +14°C° 0 mm 0 mps 750 mmHg 85%

    27 January, Monday

    Time Temperature Precipitation Wind Pressure Humidity
    00:00 +14°C° 0 mm 0 mps 749 mmHg 85%
    01:00 +14°C° 0 mm 0 mps 749 mmHg 84%
    02:00 +14°C° 0 mm 0 mps 749 mmHg 84%
    03:00 +14°C° 0 mm 0 mps 749 mmHg 84%
    04:00 +14°C° 0 mm 0 mps 749 mmHg 84%
    05:00 +17°C° 0 mm 0 mps 749 mmHg 75%
    06:00 +21°C° 0 mm 1 mps 750 mmHg 65%
    07:00 +24°C° 0 mm 1 mps 750 mmHg 56%
    08:00 +26°C° 0 mm 2 mps 750 mmHg 50%
    09:00 +29°C° 0 mm 2 mps 750 mmHg 45%
    10:00 +31°C° 0 mm 3 mps 750 mmHg 39%
    11:00 +32°C° 0 mm 4 mps 750 mmHg 38%
    12:00 +32°C° 0 mm 4 mps 750 mmHg 38%
    13:00 +32°C° 0 mm 4 mps 750 mmHg 37%
    14:00 +32°C° 0 mm 4 mps 750 mmHg 40%
    15:00 +30°C° 0 mm 4 mps 750 mmHg 42%
    16:00 +29°C° 0 mm 3 mps 750 mmHg 45%
    17:00 +26°C° 0 mm 3 mps 750 mmHg 58%
    18:00 +23°C° 0 mm 2 mps 750 mmHg 71%
    19:00 +20°C° 0 mm 1 mps 750 mmHg 84%
    20:00 +19°C° 0 mm 1 mps 750 mmHg 86%
    21:00 +18°C° 0 mm 1 mps 750 mmHg 87%
    22:00 +15°C° 0 mm 0 mps 750 mmHg 89%
    23:00 +15°C° 0 mm 0 mps 749 mmHg 88%

    28 January, Tuesday

    Time Temperature Precipitation Wind Pressure Humidity
    00:00 +15°C° 0 mm 0 mps 749 mmHg 88%
    01:00 +14°C° 0 mm 0 mps 749 mmHg 87%
    02:00 +14°C° 0 mm 0 mps 749 mmHg 88%
    03:00 +14°C° 0 mm 0 mps 749 mmHg 88%
    04:00 +14°C° 0 mm 0 mps 749 mmHg 89%
    05:00 +16°C° 0 mm 0 mps 749 mmHg 80%
    06:00 +21°C° 0 mm 1 mps 749 mmHg 71%
    07:00 +23°C° 0 mm 1 mps 749 mmHg 62%
    08:00 +25°C° 0 mm 2 mps 750 mmHg 56%
    09:00 +27°C° 0 mm 2 mps 750 mmHg 49%
    10:00 +30°C° 0 mm 3 mps 750 mmHg 43%
    11:00 +30°C° 0 mm 3 mps 750 mmHg 42%
    12:00 +30°C° 0 mm 4 mps 749 mmHg 42%
    13:00 +30°C° 0 mm 4 mps 749 mmHg 42%
    14:00 +29°C° 0 mm 4 mps 749 mmHg 44%
    15:00 +29°C° 0 mm 4 mps 749 mmHg 46%
    16:00 +28°C° 0 mm 3 mps 749 mmHg 48%
    17:00 +25°C° 0 mm 3 mps 750 mmHg 61%
    18:00 +21°C° 0 mm 2 mps 750 mmHg 74%
    19:00 +18°C° 0 mm 2 mps 750 mmHg 87%
    20:00 +18°C° 0 mm 1 mps 750 mmHg 89%
    21:00 +16°C° 0 mm 1 mps 750 mmHg 91%
    22:00 +14°C° 0 mm 0 mps 750 mmHg 93%
    23:00 +14°C° 0 mm 0 mps 750 mmHg 93%
    Show more